222 Commits

Author SHA1 Message Date
381676f3a3 lesavka: disable eye reencode pillarboxing 2026-04-17 21:41:22 -03:00
9386921da8 lesavka: force square-pixel eye reencode 2026-04-17 16:36:08 -03:00
d7277070f0 lesavka: keep inline preview geometry honest 2026-04-17 14:13:44 -03:00
545bda5a96 lesavka: tighten eye stream latency and fit 2026-04-17 13:51:26 -03:00
69c71fb793 lesavka: enlarge inline preview render size 2026-04-17 12:53:39 -03:00
2f11cfa483 lesavka: lighten inline preview feeds 2026-04-17 12:41:23 -03:00
57cd7aac33 lesavka: improve process cpu sampling 2026-04-17 11:54:36 -03:00
7cb0a4d655 lesavka: force reencode when requested 2026-04-17 11:51:19 -03:00
bb4921e7e9 lesavka: tighten default keyframe cadence 2026-04-17 06:17:21 -03:00
f10e8a00ae lesavka: add runtime pressure diagnostics 2026-04-17 06:14:54 -03:00
8f04300aba lesavka: add server-side stream telemetry 2026-04-17 05:59:56 -03:00
4935a5cf42 lesavka: stabilize gtk launcher tests 2026-04-17 05:53:14 -03:00
1a24db04d6 lesavka: deepen stream diagnostics 2026-04-17 05:50:24 -03:00
27db940b2c lesavka: tighten server chip sizing 2026-04-17 05:07:07 -03:00
600a6c2168 lesavka: fully quit launcher on close 2026-04-17 04:53:31 -03:00
4c505be4b2 lesavka: harden local handoff and launcher shutdown 2026-04-17 04:35:41 -03:00
68510c086a lesavka: split eye capture controls for 0.8.0 2026-04-17 01:09:33 -03:00
dddae51ac2 lesavka: keep source and 1080p distinct in 0.7.2 2026-04-17 00:21:18 -03:00
b7803dc432 lesavka: clean up stream profiles for 0.7.1 2026-04-16 22:15:59 -03:00
d4cc469173 lesavka: stabilize preview probes and bump semver 2026-04-16 21:36:16 -03:00
e8670a1c58 lesavka: add live stream telemetry 2026-04-16 21:18:34 -03:00
77f80398ce lesavka: let preview decoder auto-select 2026-04-16 19:24:18 -03:00
0155581f30 lesavka: add launcher diagnostics panel 2026-04-16 19:19:37 -03:00
4a88535960 lesavka: pace live keyboard reports and show build ids 2026-04-16 16:21:44 -03:00
29944a5fd7 lesavka: show client and server versions 2026-04-16 15:59:42 -03:00
a3e84c5c15 lesavka: preserve quick modifier chords 2026-04-16 15:32:15 -03:00
20cb355aa0 lesavka: merge live keyboard state across devices 2026-04-16 15:07:25 -03:00
59ed4e5724 lesavka: harden relay input and install flow 2026-04-16 12:58:05 -03:00
e1092afee2 feat(launcher): use high-quality breakout previews 2026-04-15 12:20:02 -03:00
0ab5ce82ed fix(launcher): bind swap keys and avoid child pid errors 2026-04-15 04:44:06 -03:00
dc0efc8f1a fix(launcher): avoid relay connect freeze 2026-04-15 04:22:25 -03:00
b53ea917d7 feat(launcher): tie relay session to previews and capture power 2026-04-15 04:11:47 -03:00
308ea1bf85 fix(launcher): rebalance layout and local preview 2026-04-15 02:46:59 -03:00
e7dcfd2fd5 feat(launcher): guide staging flow and capture modes 2026-04-15 01:57:14 -03:00
e15afc2ebd feat(launcher): stage devices with preview and capture power modes 2026-04-15 01:20:51 -03:00
d70199c410 test(launcher): stabilize recovered relay preview gate 2026-04-14 23:35:29 -03:00
df6dfefce6 wip(launcher): recover relay and preview lane onto master 2026-04-14 23:03:18 -03:00
2f7cc44976 launcher: stabilize routing and per-display breakout 2026-04-14 20:05:26 -03:00
7d4754ba31 launcher: stabilize relay controls and paste handling 2026-04-14 18:44:40 -03:00
3897239ef4 launcher: embed live preview controls 2026-04-14 14:38:03 -03:00
8dd3461be0 launcher: add pause swap key and clipboard relay controls 2026-04-14 13:09:25 -03:00
e61a71bd61 launcher: ignore gtk argv so --server works 2026-04-14 08:16:57 -03:00
455e73cdbc client: normalize launcher audio sink override 2026-04-14 07:49:38 -03:00
0908fccdb4 client: fix --server parsing with launcher flags 2026-04-14 07:07:37 -03:00
a7ba9687f0 launcher: always open GUI unless --no-launcher 2026-04-14 05:56:34 -03:00
94eab89dfc launcher: default to GUI except legacy positional direct mode 2026-04-14 05:54:09 -03:00
fa47fa4e30 launcher: default to GUI and hard-fail unsupported paste chars 2026-04-14 05:50:20 -03:00
7225ed6a1a launcher: add live pop-out/input toggles and quick handoff 2026-04-14 04:02:39 -03:00
5d37916272 feat(client): enable unified dual-stream renderer and keep gates green 2026-04-14 02:34:14 -03:00
6ff88122f0 feat(client): add launcher workflow and restore quality gates 2026-04-13 23:11:35 -03:00